Benson, United Kingdom

7:26 AM BST on September 26, 2016 (GMT +0100)
Benson Air Base

Weather History for EGUB - February, 2014

Change the Weather History Date:

Saturday, February 22, 2014

  Actual Average Record
Temperature  
Mean Temperature 44 °F -  
Max Temperature 51 °F 45 °F 55 °F (2002)
Min Temperature 38 °F 34 °F 21 °F (2015)
Degree Days  
Heating Degree Days 20    
Moisture  
Dew Point 37 °F    
Average Humidity 72    
Maximum Humidity 87    
Minimum Humidity 40    
Precipitation  
Precipitation 0.00 in - - ()
Sea Level Pressure  
Sea Level Pressure 29.78 in    
Wind  
Wind Speed 11 mph ()    
Max Wind Speed 21 mph    
Max Gust Speed 26 mph    
Visibility 10.9 miles    
Events      
Averages and records for this station are not official NWS values.
T = Trace of Precipitation, MM = Missing Value Source: Averaged Metar Reports

Daily Weather History Graph

Daily Weather History Graph

Search for Another Location

Airport or City:

Trip Planner

Search our weather history database for the weather conditions in past years. The results will help you decide how hot, cold, wet, or windy it might be!

Date:

Astronomy

Feb. 22, 2014 Rise Set
Actual Time 7:04 AM GMT 5:31 PM GMT
Civil Twilight 6:30 AM GMT 6:05 PM GMT
Nautical Twilight 5:52 AM GMT 6:44 PM GMT
Astronomical Twilight 5:13 AM GMT 7:23 PM GMT
Moon 1:00 AM GMT (2/22) 10:13 AM GMT (2/22)
Length of Visible Light 11h 35m
Length of Day
10h 26m
Waning Gibbous, 52% of the Moon is Illuminated
Feb 22
Waning Gibbous
Feb 22
Last Quarter
Mar 1
New
Mar 8
First Quarter
Mar 16
Full

Hourly Weather History & Observations

Time (GMT) Temp. Windchill Dew Point Humidity Pressure Visibility Wind Dir Wind Speed Gust Speed Precip Events Conditions
12:00 AM 42 °F - 37 °F 75% 29.65 in 18 mi South 12.7 mph - -   Scattered Clouds
12:50 AM 41.0 °F 34.3 °F 35.6 °F 81% 29.62 in 6.2 mi South 11.5 mph - N/A   Partly Cloudy
1:00 AM 41 °F - 36 °F 77% 29.65 in 19 mi South 11.5 mph - -   Scattered Clouds
1:50 AM 41.0 °F 34.3 °F 35.6 °F 81% 29.65 in 6.2 mi SSW 11.5 mph - N/A   Scattered Clouds
2:00 AM 41 °F - 36 °F 76% 29.66 in 19 mi SSW 11.5 mph - -   Partly Cloudy
2:50 AM 41.0 °F 34.3 °F 35.6 °F 81% 29.65 in 6.2 mi South 11.5 mph - N/A   Partly Cloudy
3:00 AM 40 °F - 36 °F 79% 29.66 in 19 mi South 11.5 mph - -   Scattered Clouds
3:50 AM 39.2 °F 32.0 °F 35.6 °F 87% 29.65 in 6.2 mi South 11.5 mph - N/A   Partly Cloudy
4:00 AM 40 °F - 36 °F 80% 29.67 in 15 mi South 11.5 mph - -   Scattered Clouds
4:50 AM 39.2 °F 31.6 °F 35.6 °F 87% 29.65 in 6.2 mi South 12.7 mph - N/A   Unknown
5:00 AM 40 °F - 36 °F 80% 29.69 in 13 mi South 12.7 mph - -  
5:50 AM 39.2 °F 33.0 °F 35.6 °F 87% 29.71 in 6.2 mi South 9.2 mph - N/A   Unknown
6:00 AM 38 °F - 35 °F 87% 29.72 in 13 mi South 9.2 mph - -  
6:50 AM 39.2 °F 33.0 °F 35.6 °F 87% 29.71 in 6.2 mi South 9.2 mph - N/A   Partly Cloudy
7:00 AM 39 °F - 36 °F 84% 29.73 in 12 mi South 9.2 mph - -   Scattered Clouds
7:50 AM 39.2 °F 33.0 °F 35.6 °F 87% 29.74 in 6.2 mi South 9.2 mph - N/A   Partly Cloudy
8:00 AM 40 °F - 36 °F 82% 29.77 in 12 mi South 9.2 mph - -   Scattered Clouds
8:50 AM 42.8 °F 38.0 °F 37.4 °F 81% 29.77 in 6.2 mi South 8.1 mph - N/A   Partly Cloudy
9:00 AM 43 °F - 38 °F 74% 29.80 in 12 mi South 8.1 mph - -   Scattered Clouds
9:50 AM 44.6 °F 38.8 °F 39.2 °F 81% 29.80 in 6.2 mi South 11.5 mph - N/A   Mostly Cloudy
10:00 AM 45 °F - 39 °F 72% 29.81 in 12 mi South 11.5 mph - -   Scattered Clouds
10:50 AM 46.4 °F 40.7 °F 39.2 °F 76% 29.80 in 6.2 mi SSW 12.7 mph - N/A   Scattered Clouds
11:00 AM 47 °F - 40 °F 67% 29.83 in 12 mi SSW 12.7 mph - -   Scattered Clouds
11:50 AM 48.2 °F - 37.4 °F 66% 29.83 in 6.2 mi SSW 13.8 mph - N/A   Partly Cloudy
12:00 PM 49 °F - 38 °F 56% 29.83 in 16 mi SSW 13.8 mph - -   Scattered Clouds
12:50 PM 50.0 °F - 37.4 °F 62% 29.83 in 6.2 mi SSW 13.8 mph - N/A   Partly Cloudy
1:00 PM 51 °F - 37 °F 48% 29.84 in 16 mi SSW 13.8 mph - -   Scattered Clouds
1:50 PM 50.0 °F - 35.6 °F 58% 29.83 in 6.2 mi SSW 15.0 mph 26.5 mph N/A   Partly Cloudy
2:00 PM 50 °F - 36 °F 46% 29.84 in 19 mi SSW 15.0 mph - -   Partly Cloudy
2:50 PM 50.0 °F - 35.6 °F 58% 29.83 in 6.2 mi SSW 13.8 mph - N/A   Partly Cloudy
3:00 PM 50 °F - 35 °F 44% 29.84 in 19 mi SSW 13.8 mph - -   Scattered Clouds
3:50 PM 50.0 °F - 33.8 °F 54% 29.83 in 6.2 mi SSW 15.0 mph - N/A   Partly Cloudy
4:00 PM 50 °F - 33 °F 40% 29.85 in 19 mi SSW 15.0 mph - -   Scattered Clouds
4:50 PM 48.2 °F - 35.6 °F 62% 29.83 in 6.2 mi SSW 11.5 mph - N/A   Scattered Clouds
5:00 PM 48 °F - 36 °F 51% 29.86 in 18 mi SSW 11.5 mph - -   Scattered Clouds
5:50 PM 46.4 °F 41.1 °F 35.6 °F 66% 29.86 in 6.2 mi South 11.5 mph - N/A   Mostly Cloudy
6:00 PM 47 °F - 36 °F 56% 29.87 in 17 mi South 11.5 mph - -   Mostly Cloudy
6:50 PM 46.4 °F 40.7 °F 37.4 °F 71% 29.86 in 6.2 mi South 12.7 mph - N/A   Partly Cloudy
7:00 PM 46 °F - 37 °F 60% 29.88 in 15 mi South 12.7 mph - -   Scattered Clouds
7:50 PM 46.4 °F 40.7 °F 39.2 °F 76% 29.86 in 6.2 mi SSE 12.7 mph - N/A   Mostly Cloudy
8:00 PM 46 °F - 39 °F 67% 29.88 in 18 mi SSE 12.7 mph - -   Mostly Cloudy
8:50 PM 46.4 °F 39.8 °F 39.2 °F 76% 29.86 in 6.2 mi SSE 16.1 mph - N/A   Mostly Cloudy
9:00 PM 46 °F - 40 °F 72% 29.87 in 16 mi SSE 16.1 mph - -   Mostly Cloudy
9:50 PM 46.4 °F 39.2 °F 41.0 °F 81% 29.86 in 6.2 mi SSE 18.4 mph - N/A   Mostly Cloudy
10:00 PM 47 °F - 41 °F 71% 29.87 in 17 mi SSE 18.4 mph - -   Mostly Cloudy
10:50 PM 46.4 °F 39.2 °F 42.8 °F 87% 29.86 in 6.2 mi South 18.4 mph - N/A   Mostly Cloudy
11:00 PM 47 °F - 42 °F 77% 29.87 in 10 mi South 18.4 mph - -   Scattered Clouds
11:50 PM 46.4 °F 38.7 °F 42.8 °F 87% 29.83 in 6.2 mi SSE 20.7 mph - N/A   Mostly Cloudy